Fargo, ND

9:48 AM CDT on September 19, 2017 (GMT -0500)
Hector International

Weather History for KFAR - April, 2013

Change the Weather History Date:

Friday, April 5, 2013

  Actual Average Record
Temperature  
Mean Temperature 26 °F 39 °F  
Max Temperature 35 °F 49 °F 80 °F (1991)
Min Temperature 17 °F 28 °F 0 °F (1881)
Degree Days  
Heating Degree Days 39 26  
Month to date heating degree days 197 138  
Since 1 July heating degree days 8258 7968  
Cooling Degree Days 0 0  
Month to date cooling degree days 0 0  
Year to date cooling degree days 0 0  
Moisture  
Dew Point 20 °F    
Average Humidity 70    
Maximum Humidity 84    
Minimum Humidity 56    
Precipitation  
Precipitation T in 0.04 in 1.39 in (1997)
Month to date precipitation T 0.20  
Year to date precipitation 3.63 2.81  
Snow  
Snow T in 0.20 in 4.60 in (1947)
Month to date snowfall T 0.8  
Since 1 July snowfall 51.7 47.9  
Snow Depth 7.00 in    
Sea Level Pressure  
Sea Level Pressure 30.11 in    
Wind  
Wind Speed 12 mph (ESE)    
Max Wind Speed 23 mph    
Max Gust Speed 32 mph    
Visibility 9 miles    
Events Snow    
T = Trace of Precipitation, MM = Missing Value Source: NWS Daily Summary

Daily Weather History Graph

Daily Weather History Graph

Search for Another Location

Airport or City:

Trip Planner

Search our weather history database for the weather conditions in past years. The results will help you decide how hot, cold, wet, or windy it might be!

Date:

Astronomy

Apr. 05, 2013 Rise Set
Actual Time 6:58 AM CDT 8:02 PM CDT
Civil Twilight 6:27 AM CDT 8:33 PM CDT
Nautical Twilight 5:49 AM CDT 9:10 PM CDT
Astronomical Twilight 5:10 AM CDT 9:50 PM CDT
Moon 4:23 AM CDT (4/5) 3:11 PM CDT (4/5)
Length of Visible Light 14h 06m
Length of Day
13h 04m
Waning Crescent, 23% of the Moon is Illuminated
Apr 5
Waning Crescent
Apr 10
New
Apr 18
First Quarter
Apr 25
Full
May 2
Last Quarter

Hourly Weather History & Observations

Time (CDT) Temp. Windchill Dew Point Humidity Pressure Visibility Wind Dir Wind Speed Gust Speed Precip Events Conditions
12:53 AM 21.0 °F 13.4 °F 15.1 °F 78% 30.31 in 10.0 mi North 5.8 mph - N/A   Clear
1:53 AM 19.9 °F 13.4 °F 15.1 °F 81% 30.31 in 10.0 mi North 4.6 mph - N/A   Clear
2:53 AM 19.9 °F 14.9 °F 14.0 °F 78% 30.31 in 10.0 mi NNE 3.5 mph - N/A   Clear
3:53 AM 19.0 °F 11.1 °F 14.0 °F 81% 30.30 in 10.0 mi NNE 5.8 mph - N/A   Clear
4:53 AM 18.0 °F 9.8 °F 14.0 °F 84% 30.29 in 10.0 mi NNE 5.8 mph - N/A   Clear
5:53 AM 18.0 °F 11.1 °F 12.9 °F 81% 30.27 in 10.0 mi ENE 4.6 mph - N/A   Clear
6:53 AM 17.1 °F 10.0 °F 12.9 °F 84% 30.26 in 10.0 mi ENE 4.6 mph - N/A   Clear
7:53 AM 19.0 °F 12.3 °F 14.0 °F 81% 30.25 in 10.0 mi ENE 4.6 mph - N/A   Clear
8:53 AM 23.0 °F 14.7 °F 16.0 °F 74% 30.23 in 10.0 mi ESE 6.9 mph - N/A   Clear
9:53 AM 28.0 °F 17.5 °F 17.1 °F 63% 30.21 in 10.0 mi SE 12.7 mph - N/A   Mostly Cloudy
10:53 AM 30.0 °F 20.0 °F 18.0 °F 61% 30.18 in 10.0 mi SE 12.7 mph - N/A   Overcast
11:53 AM 32.0 °F 22.5 °F 19.0 °F 59% 30.16 in 10.0 mi SE 12.7 mph 21.9 mph N/A   Overcast
12:53 PM 33.1 °F 23.4 °F 19.9 °F 59% 30.14 in 10.0 mi SE 13.8 mph - N/A   Overcast
1:53 PM 33.1 °F 21.9 °F 21.9 °F 64% 30.09 in 6.0 mi SSE 18.4 mph 26.5 mph 0.00 in Snow Light Snow
2:53 PM 32.0 °F 22.5 °F 25.0 °F 75% 30.06 in 1.8 mi SSE 12.7 mph - 0.00 in Snow Light Snow
3:06 PM 32.0 °F 21.2 °F 26.6 °F 80% 30.01 in 3.0 mi SE 16.1 mph 24.2 mph 0.00 in Snow Light Snow
3:53 PM 33.1 °F 22.6 °F 26.1 °F 75% 30.02 in 10.0 mi SE 16.1 mph 24.2 mph 0.00 in   Overcast
4:53 PM 33.1 °F 23.0 °F 26.1 °F 75% 30.00 in 10.0 mi ESE 15.0 mph 23.0 mph N/A   Overcast
5:53 PM 34.0 °F 24.2 °F 27.0 °F 75% 29.97 in 10.0 mi ESE 15.0 mph - N/A   Overcast
6:53 PM 34.0 °F 23.0 °F 27.0 °F 75% 29.94 in 10.0 mi ESE 18.4 mph 26.5 mph N/A   Overcast
7:53 PM 34.0 °F 23.8 °F 26.1 °F 73% 29.92 in 10.0 mi ESE 16.1 mph 26.5 mph N/A   Partly Cloudy
8:53 PM 33.1 °F 23.4 °F 26.1 °F 75% 29.90 in 10.0 mi ESE 13.8 mph - N/A   Clear
9:53 PM 34.0 °F 23.8 °F 27.0 °F 75% 29.87 in 10.0 mi ESE 16.1 mph 21.9 mph N/A   Overcast
10:53 PM 35.1 °F 24.8 °F 28.0 °F 76% 29.84 in 10.0 mi ESE 17.3 mph 23.0 mph N/A   Mostly Cloudy
11:53 PM 35.1 °F 25.5 °F 28.0 °F 76% 29.80 in 10.0 mi SE 15.0 mph - N/A   Mostly Cloudy